Regional & State Weather Roundups


572 
ASUS46 KPDT 110325
RWRPDT
PENDLETON REGIONAL WEATHER ROUNDUP
NATIONAL WEATHER SERVICE PENDLETON OREGON
700 PM PST SUN DEC 10 2017
NOTE: FAIR INDICATES FEW OR NO CLOUDS BELOW 12,000 FEET WITH NO
SIGNIFICANT WEATHER AND/OR OBSTRUCTIONS TO VISIBILITY.
# INDICATES UNOFFICIAL STATION AND DATA
WAZ520-110410-
EAST SLOPES OF WASHINGTON CASCADES
CITY            SKY/WX      TMP DP  RH  WIND    PRES   REMARKS
#BULLFROG       N/A         27  22  81  E2      N/A                          
#CLE ELUM HS    N/A         27  22  81  SE3     30.52S                       
#CLE ELUM LAKE  N/A         22  21  96  CALM    30.60S                       
#EASTON DOT     N/A         24  21  88  N9      N/A                          
#ELK HTS DOT    N/A         25  25  100 E1      N/A                          
#GLENWOOD       N/A         27  23  85  NE1     30.70R                       
#NELSON 3SW     N/A         22  21  96  CALM    30.92R                       
#NILE           N/A         25  22  88  CALM    29.94S                       
#TEANAWAY 4NE   N/A         26  23  88  CALM    N/A                          
#TROUT LAKE 1NE N/A         27  24  88  E1      30.69S                       
#TROUT LAKE 1E  N/A         26  23  88  CALM    30.60S                       
$$
WAZ521-110410-
SIMCOE HIGHLANDS
CITY            SKY/WX      TMP DP  RH  WIND    PRES   REMARKS
#BICKLETON HS   N/A         N/A N/A N/A NE5     30.52S                       
#CENTERVILLE 1SWN/A         26  22  85  E2      30.68R                       
#GOLDENDALE 4W  N/A         27  12  53  E8      30.62F                       
#GOODNOE HILLS  N/A         28  21  75  E14     30.53S WCI 17                
#LYLE 6NE       N/A         27  25  92  N1      30.71S                       
#PITT 4SE       N/A         23  22  96  CALM    30.74S                       
$$
WAZ026-110410-
KITTITAS VALLEY
CITY            SKY/WX      TMP DP  RH  WIND    PRES   REMARKS
ELLENSBURG AP   N/A         N/A N/A N/A MISG    30.62S                       
#ELLENSBURG CWU N/A         28  24  85  S1      30.64F                       
#ELLENSBURG 3NE N/A         27  24  88  CALM    28.66F                       
#ELLENSBURG 1E  N/A         28  24  85  CALM    30.75F                       
#KITTITAS 3S    N/A         29  24  81  E5      30.68F                       
#MANASTASH RDG  N/A         24  24  100 E1      N/A                          
#RYEGRASS DOT   N/A         24  23  96  E5      N/A                          
$$
WAZ027-110410-
YAKIMA VALLEY
CITY            SKY/WX      TMP DP  RH  WIND    PRES   REMARKS
SUNNYSIDE AP    CLOUDY      29  26  88  CALM    30.69F                       
YAKIMA AIRPORT  CLOUDY      32  25  75  CALM    30.67S                       
YAKIMA-VAGABOND CLOUDY      29  24  81  E5      30.62F                       
#DONALD 2NE     N/A         30  14  51  CALM    29.50F                       
#GRANDVIEW      N/A         30  23  75  CALM    30.65F                       
#MABTON         N/A         31  28  88  CALM    30.68F                       
#MOXEE 2E       N/A         29  N/A N/A CALM    30.62F                       
#NACHES 2SW     N/A         28  25  88  CALM    30.62S                       
#OUTLOOK DOT    N/A         30  27  88  CALM    30.65F                       
#PARKER DOT     N/A         31  25  78  E1      30.67F                       
#TERRACE HTS    N/A         29  25  85  CALM    30.69F                       
#TOPPENISH      N/A         31  26  81  CALM    30.64F                       
#I82 S UMTANUM RN/A         26  23  88  NE5     N/A                          
#UNION GAP DOT  N/A         31  26  81  SW1     30.70F                       
#W YAKIMA       N/A         29  25  85  E2      30.72F                       
#WHITE SWAN 5E  N/A         30  26  85  CALM    30.74F                       
#WILEY CITY 3W  N/A         28  21  75  CALM    30.60F                       
#ZILLAH DOT     N/A         31  26  81  S1      N/A                          
$$
WAZ028-110410-
LOWER COLUMBIA BASIN...WASHINGTON
CITY            SKY/WX      TMP DP  RH  WIND    PRES   REMARKS
PASCO           CLOUDY      31  27  85  NW5     30.71F                       
PROSSER AWOS    N/A         32  27  82  CALM    30.72F                       
RICHLAND AWOS   CLOUDY      32  29  89  CALM    30.71F                       
#BENTON CITY    N/A         30  26  85  CALM    30.63S                       
#CONNELL 5N     N/A         28  24  85  CALM    30.73S                       
#CONNELL 5NW    N/A         28  24  85  NE1     30.68S                       
#ELTOPIA 6NW    N/A         29  26  88  CALM    29.62F                       
#KAHLOTUS       N/A         27  24  88  CALM    30.72F                       
#KENNEWICK 3S   N/A         30  26  85  CALM    30.73S                       
#PATERSON       N/A         31  26  81  CALM    30.70F                       
#PROSSER DOT    N/A         31  26  81  CALM    30.70F                       
#TOUCHET 2S     N/A         31  28  88  NE1     30.70F                       
#WEST PASCO     N/A         34  30  85  CALM    30.87S                       
$$
WAZ029-110410-
FOOTHILLS OF THE BLUES...WASHINGTON
CITY            SKY/WX      TMP DP  RH  WIND    PRES   REMARKS
WALLA WALLA AP  CLOUDY      29  24  81  NE5     30.65S                       
#CLYDE 6NW      N/A         27  24  88  N1      30.71S                       
#DAYTON SCHOOL  N/A         26  18  71  CALM    30.60F                       
#DELANEY DOT    N/A         28  23  81  S1      30.68F                       
#LOWDEN 2SE     N/A         31  27  85  E2      30.66S                       
#PLEASANT VIEW 1N/A         24  23  96  CALM    30.77F                       
#PRESCOTT       N/A         30  26  85  CALM    30.71F                       
#WHITMAN COLLEGEN/A         30  25  81  NW2     30.70F                       
#WAITSBURG 5S   N/A         25  23  92  S1      30.83F                       
#WAITSBURG 6SSE N/A         26  21  81  NW1     30.70F                       
#WALLA WALLA 5E N/A         28  25  88  CALM    N/A                          
#WHITMAN MISSIONN/A         32  28  85  CALM    30.73S                       
$$
WAZ030-110410-
BLUE MOUNTAINS...WASHINGTON
 
CITY            SKY/WX      TMP DP  RH  WIND    PRES   REMARKS
$$
ORZ009-041-WAZ024-110410-
COLUMBIA RIVER GORGE
CITY            SKY/WX      TMP DP  RH  WIND    PRES   REMARKS
HOOD RIVER AP   CLOUDY      32  27  82  E3      30.67S                       
THE DALLES AP   CLOUDY      34  26  72  SE6     30.70S                       
#ARLINGTON AIRPON/A         29  26  88  E5      30.73S                       
#ARLINGTON HS   N/A         32  25  75  CALM    30.63S                       
#CELILO DOT     N/A         34  23  64  E1      N/A                          
#LYLE           N/A         34  28  78  E6      30.72S                       
#MARYHILL       N/A         30  24  78  N7      N/A                          
#MURDOCK        N/A         33  27  78  SE2     30.67F                       
#RUFUS DOT      N/A         34  N/A N/A E9      N/A                          
#SMITHVILLE     N/A         33  27  78  SE3     30.66R                       
$$
ORZ510-110410-
NORTH CENTRAL OREGON
CITY            SKY/WX      TMP DP  RH  WIND    PRES   REMARKS
#ANTELOPE       N/A         21  19  92  NE6     30.60S                       
#CHENOWITH 1W   N/A         25  23  92  SE8     N/A                          
#COW CYN RST AREN/A         20  N/A N/A E2      N/A                          
#DUFUR          N/A         27  24  88  E2      30.67S                       
#DUFUR 9E       N/A         23  22  96  CALM    30.77F                       
#GRASS VALLEY 1SN/A         23  22  96  CALM    30.54R                       
#KENT DOT       N/A         22  18  84  E2      N/A                          
#MAUPIN SCHOOL  N/A         29  22  75  CALM    30.68S                       
#MORO SCHOOL    N/A         25  25  100 E3      30.56F                       
#SHANIKO 5WSW   N/A         18  -67  1  CALM    N/A                          
#SHANIKO 4NW    N/A         18  17  96  CALM    30.47R                       
#TYGH VALLEY 2NEN/A         28  24  85  N2      30.70S                       
#WAPANITIA AIRPON/A         25  22  88  CALM    30.72F                       
#WASCO DOT      N/A         30  25  81  E8      N/A                          
#WASCO 5NE      N/A         28  19  68  E5      30.70F                       
$$
ORZ511-110410-
CENTRAL OREGON
CITY            SKY/WX      TMP DP  RH  WIND    PRES   REMARKS
BEND AIRPORT    PTCLDY      19  18  96  CALM    30.51R                       
PRINEVILLE AP   PTCLDY      18  16  92  W3      30.51R                       
REDMOND AIRPORT PTCLDY      16  15  96  W5      30.51R                       
#ASHWOOD SCHOOL N/A         24  21  88  CALM    30.47S                       
#BEND 1SW       N/A         24  20  84  CALM    N/A                          
#BEND-AWBREY    N/A         22  20  92  CALM    30.68S                       
#BEND-KIM LN    N/A         21  19  92  CALM    30.66S                       
#CULVER         N/A         23  19  84  CALM    30.55S                       
#CULVER 8W      N/A         24  16  71  CALM    30.48S                       
#LAKE BILLY CHINN/A         24  N/A N/A N1      30.63S                       
#MADRAS 4S      N/A         24  -3  30  CALM    N/A                          
#POWELL BUTTE   N/A         21  17  84  W2      30.38S                       
#PRINEVILLE     N/A         19  16  88  CALM    30.77S                       
#PRINEVILLE 3N  N/A         20  17  88  CALM    30.68R                       
#WARM SPRINGS   N/A         29  23  78  CALM    30.50S                       
$$
ORZ509-110410-
EAST SLOPES OF OREGON CASCADES
CITY            SKY/WX      TMP DP  RH  WIND    PRES   REMARKS
SISTERS AWOS    N/A         21  19  92  CALM    N/A                          
#BLUE BOX PASS  N/A         18  N/A N/A SW1     N/A                          
#CAMP SHERMAN   N/A         21  17  84  CALM    30.76R                       
#LA PINE 4NW    N/A         24  16  71  CALM    30.71R                       
#LAVA BUTTE DOT N/A         26  19  74  CALM    N/A                          
#SISTERS ODOT   N/A         22  19  88  CALM    N/A                          
#SISTERS 3N     N/A         22  15  74  E2      30.47S                       
#SUNRIVER       N/A         26  21  81  CALM    30.65R                       
#TUMALO 3W      N/A         20  18  92  CALM    30.58S                       
#WANOGA BUTTE D N/A         45  -9  10  W6      N/A                          
$$
ORZ044-110410-
LOWER COLUMBIA BASIN...OREGON
CITY            SKY/WX      TMP DP  RH  WIND    PRES   REMARKS
HERMISTON       CLOUDY      31  27  85  CALM    30.68F                       
#BOARDMAN SCHOOLN/A         32  27  82  N1      30.70S                       
#BOARDMAN 8SW   N/A         31  27  85  E2      30.72S                       
#ECHO 8SW       N/A         30  27  88  CALM    30.68F                       
#I-84 EX 198 DOTN/A         28  25  88  E1      N/A                          
#IONE SCHOOL    N/A         28  14  55  CALM    30.73F                       
$$
ORZ507-110410-
NORTHERN FOOTHILLS OF THE BLUES
CITY            SKY/WX      TMP DP  RH  WIND    PRES   REMARKS
PENDLETON AIRPT CLOUDY      27  24  88  NW6     30.62F                       
#ADAMS 3WNW     N/A         27  24  88  NE5     30.71F                       
#ATHENA         N/A         26  24  92  CALM    30.73F                       
#CAYUSE         N/A         28  25  88  N6      30.70F                       
#HELIX SCHOOL   N/A         27  25  92  N1      30.71F                       
#HELIX 3N       N/A         25  24  96  CALM    30.54F                       
#HOLDMAN 5SE    N/A         28  26  92  NW1     30.60S                       
#HOLDMAN 6E     N/A         26  25  96  NE1     30.51S                       
#M-F GROVE ELEM N/A         29  22  75  CALM    30.60F                       
#M-FREEWATER 5SEN/A         28  24  85  CALM    30.60S                       
#PENDLETON DNTN N/A         30  22  72  CALM    30.60S                       
#PDT AQUATIC CTRN/A         28  23  81  CALM    30.64F                       
#PDT SUNRIDGE   N/A         28  25  88  CALM    30.65F                       
#PENDLETON 6SE  N/A         28  26  92  CALM    30.66F                       
#PENDLETON 7NW  N/A         29  24  81  CALM    28.19F                       
#PILOT ROCK 1S  N/A         27  20  74  CALM    30.59F                       
#PILOT ROCK     N/A         28  23  81  CALM    30.59F                       
#TUTUILLA       N/A         26  23  88  CALM    30.67F                       
#UMAPINE 2E     N/A         31  27  85  CALM    30.64F                       
#WESTON SCHOOL  N/A         25  21  84  E1      30.54F                       
$$
ORZ508-110410-
SOUTHERN FOOTHILLS OF THE BLUES
CITY            SKY/WX      TMP DP  RH  WIND    PRES   REMARKS
LEXINGTON       CLOUDY      27  25  92  CALM    30.65F                       
#AJAX           N/A         23  16  74  N5      30.68S                       
#CONDON 5W      N/A         19  17  92  CALM    30.46F                       
#FOSSIL SCHOOL  N/A         24  22  92  CALM    30.43F                       
#HEPPNER EOC    N/A         23  21  92  W1      30.65F                       
#HEPPNER 4NE    N/A         21  19  92  CALM    30.71F                       
#LEXINGTON 2SE  N/A         27  23  85  CALM    30.58F                       
#MIKKALO        N/A         26  22  85  E7      30.70F                       
#OLEX 4N        N/A         29  26  88  E2      30.61F                       
#RUGGS 5NE      N/A         21  21  100 CALM    30.72S                       
#RUGGS 2SW      N/A         21  19  92  CALM    30.75F                       
$$
ORZ502-503-110410-
BLUE MOUNTAINS
CITY            SKY/WX      TMP DP  RH  WIND    PRES   REMARKS
MEACHAM         CLEAR       25  17  71  CALM    30.47S                       
#BATTLE MTN DOT N/A         31  19  61  S3      N/A                          
#GRANITE        N/A         16   3  56  CALM    30.61S                       
#LADD CYN SMT   N/A         22  19  88  SE16G25 N/A    WCI  8                
#LADD CREEK ODOTN/A         25  -22 11  SW8     N/A                          
#LONG CREEK HS  N/A         24  23  96  CALM    30.48R                       
#N POWDER DOT   N/A         20  17  88  W3      N/A                          
#PIKES PEAK     N/A         19  16  88  CALM    27.99S                       
#SUMMERVILLE 5NWN/A         17  15  92  CALM    28.48S                       
#TOLLGATE       N/A         22  16  77  E2      30.26S                       
#TROY SCHOOL    N/A         27  23  85  CALM    30.56R                       
#UKIAH          N/A         19  16  88  CALM    30.63R                       
#WESTON 4E      N/A         22  20  92  CALM    30.68S                       
$$
ORZ505-110410-
JOHN DAY BASIN
CITY            SKY/WX      TMP DP  RH  WIND    PRES   REMARKS
JOHN DAY        CLEAR       34  20  56  E7      30.48R                       
#ANTELOPE 9ESE  N/A         28  23  81  CALM    N/A                          
#MITCHELL 8NW   N/A         19  17  92  CALM    30.78F                       
#MONUMENT HS    N/A         21  15  77  CALM    30.48R                       
#MT. VERNON 5SE N/A         34  20  56  S1      30.40S                       
#SPRAY SCHOOL   N/A         23  N/A N/A N1      N/A                          
#WINLOCK        N/A         26  22  85  CALM    30.43S                       
$$
ORZ506-110410-
OCHOCO AND JOHN DAY HIGHLANDS
CITY            SKY/WX      TMP DP  RH  WIND    PRES   REMARKS
#HORSE RIDGE DO N/A         24  16  71  E12     N/A    WCI 13                
#IZEE 6NW       N/A         24  19  81  S1      N/A                          
#PAULINA ODOT   N/A         23  18  81  W5      N/A                          
#PINE MTN OBS   N/A         44  -1  15  S10     N/A                          
#PRAIRIE CITY   N/A         28  18  66  CALM    30.63S                       
#SENECA         N/A         20  N/A N/A N5      N/A                          
#SENECA 9NW     N/A         21  16  81  CALM    30.78S                       
$$
ORZ049-110410-
GRANDE RONDE VALLEY
CITY            SKY/WX      TMP DP  RH  WIND    PRES   REMARKS
LA GRANDE       PTCLDY      22  19  88  NW6     30.59R                       
#COVE SCHOOL    N/A         22  19  88  CALM    30.55R                       
#COVE 6NW       N/A         27  22  81  SE5     30.72S                       
#ELGIN 3N       N/A         26  15  63  S6      30.52R                       
#ELGIN 1E       N/A         27  20  74  CALM    N/A                          
#IMBLER SCHOOL  N/A         26  21  81  S5      30.51S                       
#ISLAND CITY 4N N/A         30  27  88  CALM    30.37S                       
#LADD CYN DOT   N/A         27  21  78  S16G35  N/A    WCI 15                
#UNION 1S       N/A         26  21  81  S12     30.74S WCI 15                
$$
ORZ050-110410-
WALLOWA COUNTY
CITY            SKY/WX      TMP DP  RH  WIND    PRES   REMARKS
JOSEPH AIRPORT  PTCLDY      12  10  91  CALM    30.54R                       
#ENTERPRISE HS  N/A         19  17  92  CALM    30.68S                       
#IMNAHA SCHOOL  N/A         25  21  84  CALM    30.58R                       
#IMNAHA 10S     N/A         24  19  81  SW2     30.50R                       
#JOSEPH         N/A         15   8  73  CALM    30.92R                       
#JOSEPH 3N      N/A         12   7  80  CALM    30.51S                       
#JOSEPH 3W      N/A         18  17  96  CALM    30.91R                       
#LOSTINE        N/A         17  15  92  CALM    30.57S                       
#LOSTINE 3SE    N/A         17  15  92  W3      30.58S                       
#MT HOWARD 8000 N/A         46  -25  4  SW1     30.54S                       
#PROMISE 1S     N/A         24  19  81  CALM    30.82R                       
#WALLOWA SCHOOL N/A         16  14  92  CALM    30.53R                       
$$